Date,TemperatureHighF,TemperatureAvgF,TemperatureLowF,DewpointHighF,DewpointAvgF,DewpointLowF,HumidityHigh,HumidityAvg,HumidityLow,PressureMaxIn,PressureMinIn,WindSpeedMaxMPH,WindSpeedAvgMPH,GustSpeedMaxMPH,PrecipitationSumIn
2013-7-1,93,84,78,79,69,53,96,66,28,29.94,29.79,0,0,0,0.00
2013-7-2,91,82,77,78,68,53,95,66,29,30.00,29.91,0,0,0,0.00
2013-7-3,87,81,76,76,74,66,96,80,51,29.97,29.88,0,0,0,0.00
2013-7-4,91,82,75,79,75,69,100,80,54,29.94,29.85,0,0,0,0.00
2013-7-5,93,84,77,79,76,72,97,78,55,29.91,29.82,0,0,0,0.00
2013-7-6,93,84,79,82,78,76,98,85,61,29.88,29.79,0,0,0,0.00
2013-7-7,94,83,78,83,78,76,99,86,63,29.94,29.82,0,0,0,0.00
2013-7-8,92,85,82,84,80,78,97,87,73,30.06,29.94,0,0,0,0.00
2013-7-9,95,87,81,85,81,78,97,83,66,30.09,30.00,0,0,0,0.00
2013-7-10,94,86,80,84,80,76,99,82,60,30.06,29.91,0,0,0,0.00
2013-7-11,93,86,81,81,78,76,94,80,61,29.97,29.88,0,0,0,0.00
2013-7-12,93,85,80,81,77,72,91,79,58,29.91,29.85,0,0,0,0.00
2013-7-13,93,84,79,80,76,71,96,78,53,29.94,29.82,0,0,0,0.00
2013-7-14,90,84,79,80,77,75,94,80,63,29.91,29.79,0,0,0,0.00
2013-7-15,90,84,82,80,78,75,88,81,69,29.94,29.82,0,0,0,0.00
2013-7-16,91,83,79,79,77,71,96,82,57,30.00,29.91,0,0,0,0.00
2013-7-17,82,78,75,79,77,74,100,96,86,30.09,30.00,0,0,0,0.91
2013-7-18,90,82,74,81,77,74,100,85,60,30.09,29.94,0,0,0,0.24
2013-7-19,94,86,80,81,77,73,93,76,56,30.00,29.88,0,0,0,0.00
2013-7-20,93,85,81,79,76,74,87,76,56,29.94,29.82,0,0,0,0.00
2013-7-21,93,87,83,82,79,75,91,79,57,29.94,29.85,0,0,0,0.00
2013-7-22,93,86,84,81,80,76,90,81,58,29.97,29.88,0,0,0,0.00
2013-7-23,93,86,83,81,77,73,88,75,54,30.00,29.88,0,0,0,0.00
2013-7-24,93,86,82,79,77,73,88,75,55,29.94,29.85,0,0,0,0.00
2013-7-25,94,86,80,82,79,76,93,80,62,30.00,29.94,0,0,0,0.00
2013-7-26,93,86,82,80,79,78,90,80,62,30.00,29.88,0,0,0,0.00
2013-7-27,90,85,82,82,80,78,96,86,69,29.94,29.79,0,0,0,0.00
2013-7-28,93,86,82,82,80,78,97,85,65,29.91,29.82,0,0,0,0.00
2013-7-29,93,86,81,82,80,78,96,84,64,30.03,29.91,0,0,0,0.00
2013-7-30,92,86,81,83,81,80,98,87,69,30.06,29.97,0,0,0,0.00
2013-7-31,94,86,79,84,81,79,99,86,65,30.06,29.94,0,0,0,0.00